Presure
166 153 179 178 171 179 172 169 183 183 135 211 180 179 183 181 186 168 175 181 168 154 159 163 191 195 199 205 170 208 210 192 193 186 187 188 181 184 191 193 191 196 176 200
169 154 158 177 161 182 149 166 163 168 187 170 170 179 159 154 157 178 165 165 165 169 190 190 207 190 181 190 203 208 211 206 213 204 197 193 191 191 187 192 192 204 214 219
160 173 158 138 157 171 175 163 175 169 162 162 179 185 163 171 181 162 177 200 187 191 187 174 192 199 185 196 198 197 198 199 205 207 202 213 214 210 214 216 219 221 217 213
170 180 171 181 174 173 174 149 184 172 174 183 173 189 184 159 166 171 189 171 183 196 162 187 181 189 195 195 185 192 198 196 197 202 203 204 208 202 210 208 216 214 217 219
182 146 167 165 156 169 162 209 168 166 191 153 155 196 172 153 170 183 178 176 180 186 189 193 183 185 192 195 189 193 194 200 204 203 202 205 204 204 207 206 212 216 227 216
164 155 163 171 174 172 185 164 157 182 158 171 158 173 122 68 75 168 184 136 168 179 198 197 160 195 199 196 199 202 205 205 204 206 203 205 206 207 205 206 213 226 221 231
187 174 159 182 175 160 179 167 182 170 185 187 172 173 181 184 189 185 183 80 204 206 165 189 218 219 221 227 235 227 213 214 216 216 214 219 217 216 223 222 227 230 241 234
162 174 172 159 159 187 179 158 193 197 162 174 182 168 181 196 191 191 197 201 216 216 216 224 102 283 231 261 257 259 249 243 246 246 239 233 230 230 233 229 227 240 237 238
183 163 185 166 192 176 161 179 165 187 186 180 188 188 186 193 192 192 202 216 213 230 279 268 266 251 257 254 248 260 252 239 245 248 241 242 242 242 242 241 240 239 236 231
189 185 176 185 156 193 193 178 157 166 198 198 200 192 185 192 194 210 214 212 247 258 275 272 267 162 255 254 250 254 243 240 247 244 243 244 257 252 246 244 242 239 232 230
181 184 195 161 178 165 174 176 193 189 198 200 198 193 191 214 212 215 236 187 284 284 283 266 266 261 253 269 266 253 270 267 266 259 253 251 248 247 241 243 241 242 245 241
194 177 182 199 181 192 200 194 199 200 201 204 210 212 93 133 231 264 298 277 277 272 273 275 270 270 274 278 284 287 280 305 286 276 275 263 273 252 245 243 242 242 240 243
200 202 193 185 199 198 199 198 198 201 207 206 220 214 228 256 263 292 283 277 281 277 282 286 292 339 331 343 330 320 332 318 319 314 303 277 261 257 257 254 255 262 262 284
200 200 201 197 203 204 196 187 197 206 204 219 227 234 247 291 292 294 293 289 290 293 326 345 332 325 324 316 309 316 309 306 308 305 288 284 287 295 291 290 285 281 286 281
207 211 212 211 210 210 203 203 208 213 223 232 247 256 297 288 288 286 294 290 324 330 317 318 329 313 314 313 295 294 286 285 283 285 281 278 283 279 274 274 273 271 271 274
220 217 218 217 219 127 224 222 217 226 234 287 292 288 287 303 301 289 334 314 305 296 305 295 307 307 284 282 282 286 278 276 273 268 271 274 269 257 259 265 263 266 265 263
221 223 221 220 226 228 244 287 275 290 291 293 295 304 297 288 321 308 290 306 300 306 297 314 302 290 287 289 268 275 273 272 269 263 259 258 259 256 255 254 252 263 275 325
233 235 243 254 257 243 296 286 284 294 296 290 303 283 307 334 298 293 289 292 312 296 290 295 286 288 276 274 273 270 267 257 260 259 254 252 253 245 247 252 259 294 302 297
299 287 281 299 302 295 287 284 300 292 289 284 278 313 309 296 288 294 283 321 291 285 287 287 276 272 264 262 258 252 253 251 252 251 242 245 249 249 257 290 295 292 279 289
311 301 295 294 288 277 278 289 283 282 279 314 310 299 286 278 285 317 304 290 281 279 275 264 252 256 251 250 251 250 248 239 244 251 247 252 262 314 301 294 286 277 269 275
285 279 281 281 288 280 270 276 270 274 304 292 291 274 287 298 300 293 287 279 268 266 258 253 251 248 253 248 240 240 246 251 263 275 296 313 301 293 283 282 270 266 265 268
278 277 275 279 276 272 274 274 312 304 270 302 275 293 300 281 282 275 266 262 257 255 252 251 251 246 238 236 242 256 290 341 329 317 304 292 281 280 271 267 266 264 259 260
272 276 272 269 268 271 338 296 287 270 306 271 281 297 266 271 263 258 257 247 258 249 248 242 237 233 238 242 270 281 340 297 313 297 288 275 274 264 260 262 261 258 262 261
262 267 267 265 288 310 300 300 287 307 301 281 291 269 267 263 255 255 255 258 248 238 235 234 236 240 245 261 267 259 284 297 283 279 277 274 260 262 268 265 263 258 248 259
264 261 266 303 304 292 303 312 289 291 278 272 276 266 263 257 250 244 255 241 235 228 227 238 238 247 249 257 264 273 261 261 267 283 293 288 286 278 275 275 275 274 275 274
260 264 283 282 279 277 274 293 283 270 267 263 269 262 256 252 245 257 239 235 232 222 238 237 235 235 238 240 242 248 255 258 261 260 255 257 259 260 259 259 259 259 259 258
Wind_Speed
68 73 81 79 71 73 70 71 68 68 72 64 60 66 68 66 67 71 70 72 72 70 75 78 81 76 78 81 77 81 82 86 86 83 85 83 81 76 83 86 83 91 73 83
75 76 62 80 60 72 74 71 72 71 75 64 68 72 63 61 71 75 72 76 79 79 78 77 80 83 81 83 84 85 85 85 86 90 94 92 89 88 80 86 86 90 93 91
62 83 63 72 71 70 78 72 77 76 73 75 83 77 74 82 85 72 84 84 83 80 82 84 89 88 86 92 90 89 87 88 88 87 89 90 92 93 89 88 87 86 89 92
73 86 84 83 85 86 80 74 76 82 84 79 89 82 85 83 85 81 84 82 84 89 77 93 93 98 100 99 94 97 98 98 96 94 94 94 95 92 92 90 93 89 91 91
82 68 85 82 69 87 77 80 87 84 85 68 82 100 82 90 90 94 92 88 89 92 95 99 96 103 105 108 107 105 106 106 105 101 98 100 97 98 98 93 95 98 96 93
88 75 87 90 81 79 85 87 76 93 74 85 88 94 58 13 19 88 100 64 85 91 104 107 81 112 112 112 113 112 110 112 111 111 109 107 106 105 100 98 101 107 99 99
83 89 89 86 90 86 86 99 99 92 98 87 94 97 99 99 98 102 104 34 112 113 81 89 108 104 106 109 109 110 110 114 113 111 111 113 115 114 116 113 110 104 99 96
93 94 100 89 90 87 96 92 95 93 92 95 94 90 105 106 103 106 112 113 121 117 115 119 28 87 93 84 84 86 88 93 95 98 99 101 102 105 106 107 104 98 95 94
91 91 93 88 88 94 100 105 94 101 100 95 94 97 108 105 107 110 123 127 117 128 102 99 89 86 84 79 81 82 81 83 88 90 91 93 94 95 94 95 96 95 95 92
91 93 103 96 85 95 97 105 88 95 104 104 103 100 106 106 110 127 122 115 127 109 95 91 88 57 84 83 83 82 84 85 87 88 88 87 88 89 89 90 92 94 95 94
98 98 97 98 102 103 103 102 107 108 111 114 109 106 117 122 120 120 128 68 89 86 83 85 84 84 84 84 86 88 88 88 89 91 90 90 86 85 85 87 88 92 94 94
104 104 99 105 103 106 112 103 106 109 109 116 123 118 10 53 125 123 84 88 86 86 85 84 82 83 83 82 81 82 82 76 83 83 84 84 85 87 86 87 89 91 93 96
111 108 103 96 111 113 109 109 111 114 126 121 129 122 132 127 122 91 90 87 84 84 82 80 78 56 51 49 49 49 48 55 52 52 61 74 82 83 85 86 89 87 91 84
112 114 116 111 113 114 106 99 109 124 116 133 128 130 122 91 86 88 82 79 77 75 59 40 43 40 35 35 36 28 29 28 28 33 44 51 50 45 49 55 63 68 64 68
117 121 123 121 119 121 116 118 126 132 133 132 131 124 87 83 81 83 77 72 54 41 41 37 31 34 33 29 22 24 28 30 33 32 37 43 42 46 52 55 60 62 63 65
124 118 118 114 120 55 123 128 128 130 131 96 88 81 89 74 70 71 50 48 45 42 37 36 32 24 26 28 30 25 28 28 30 34 37 40 44 48 51 54 56 58 58 61
124 124 122 119 125 125 118 93 103 84 84 82 77 71 69 64 50 45 49 41 37 34 41 35 27 29 31 27 26 26 28 29 29 33 36 38 40 44 48 51 57 61 65 46
115 120 122 111 110 110 68 70 80 72 70 74 65 63 58 37 42 41 42 36 36 34 32 27 24 20 19 19 21 23 25 29 30 32 35 39 41 43 48 53 58 50 43 44
70 82 84 69 63 62 63 70 64 63 62 63 60 49 43 39 35 35 34 30 23 21 20 14 13 12 15 16 19 25 27 31 33 34 36 40 44 47 53 49 38 30 34 28
52 57 59 60 60 61 62 62 60 60 58 46 39 37 34 36 32 25 20 17 16 12 10 10 17 15 20 22 24 27 29 31 35 39 40 44 51 24 29 27 28 28 31 25
54 60 57 59 54 53 62 58 58 55 39 37 31 33 28 25 19 17 11 7 10 8 14 17 18 20 18 22 26 31 35 39 43 46 37 21 23 24 27 25 27 27 28 27
48 49 52 51 51 54 55 54 44 34 43 30 29 24 20 20 14 10 12 11 14 14 14 15 15 17 22 27 32 38 39 20 17 16 16 20 23 22 23 25 25 25 26 26
45 46 47 51 51 50 23 38 31 30 26 31 28 20 20 16 17 17 16 20 12 11 12 15 17 22 27 29 34 33 20 23 15 16 17 19 19 22 25 25 26 27 27 27
44 46 47 44 45 28 29 25 28 23 18 26 20 18 19 18 19 18 18 14 10 14 16 18 21 25 29 30 28 26 24 18 17 16 17 17 22 25 26 26 27 28 30 31
45 44 41 34 27 23 26 26 25 22 24 23 21 22 23 21 21 20 15 13 15 17 21 19 21 24 24 24 26 25 22 22 22 18 18 20 23 24 25 26 28 30 31 32
42 39 29 27 25 24 21 22 22 25 25 23 23 24 23 25 20 20 14 15 16 19 19 20 20 21 22 23 23 24 24 24 25 25 25 26 26 26 27 28 29 30 30 30
Wind_Direction
275 279 284 282 286 288 290 293 289 291 285 284 282 289 285 283 283 291 287 285 283 285 288 289 293 294 292 292 282 283 281 280 279 282 282 283 282 283 282 282 283 286 277 286
281 273 282 280 288 284 274 288 292 293 289 295 286 289 284 275 280 285 285 286 286 289 293 294 296 290 286 287 288 286 285 281 283 277 279 281 281 281 281 281 281 283 284 284
273 275 280 270 284 286 285 286 287 294 293 294 292 291 287 287 284 281 287 296 289 294 295 290 296 295 288 290 290 288 286 284 284 283 279 285 283 281 283 284 285 285 285 286
275 268 278 274 281 284 284 282 282 288 289 286 293 292 291 286 288 289 293 287 291 301 281 296 293 296 293 292 288 287 287 286 285 285 285 285 285 281 283 282 286 284 284 283
268 276 282 286 280 287 291 274 288 290 285 283 286 289 291 287 292 293 293 291 292 296 295 293 289 288 288 286 286 287 286 286 285 286 285 285 284 284 285 283 285 287 286 283
280 288 284 279 281 284 279 287 283 282 288 288 289 290 288 288 294 294 295 295 294 295 293 288 287 285 283 281 282 283 283 283 283 284 284 283 283 283 282 283 283 286 284 284
275 270 283 278 278 286 283 286 281 284 285 288 287 290 292 292 294 294 295 278 297 297 296 293 292 289 284 282 280 277 277 278 278 277 277 277 278 279 280 280 281 282 282 280
280 271 271 281 284 276 277 286 282 285 289 288 289 292 291 296 295 296 297 296 298 299 298 295 296 286 286 280 277 275 274 274 274 273 273 273 274 276 277 278 279 279 279 278
271 274 273 280 276 279 283 281 289 286 287 290 289 291 291 295 294 295 299 298 296 297 294 294 289 290 286 284 280 276 272 273 272 271 271 272 272 273 274 275 277 278 278 281
274 272 273 275 281 282 279 278 284 287 288 291 292 291 291 292 294 296 295 293 297 295 291 288 285 286 283 280 278 275 273 272 271 270 270 271 273 272 272 273 274 275 276 278
274 275 278 278 280 280 280 282 285 287 293 292 293 292 292 294 292 291 295 289 289 286 284 283 282 281 282 281 277 276 273 271 270 269 270 270 271 271 272 273 274 275 276 279
274 270 271 277 277 280 282 283 287 288 288 292 295 296 268 299 294 298 291 293 290 288 287 286 284 282 281 279 278 277 276 276 272 270 271 271 269 271 273 275 276 276 277 279
273 274 273 274 279 279 282 285 287 288 289 291 292 293 295 297 296 291 292 291 287 287 287 288 289 291 290 284 281 279 280 279 276 272 275 274 271 272 274 275 276 277 279 281
272 275 275 275 276 280 281 282 286 287 288 290 293 294 296 290 291 291 292 292 291 290 291 293 289 291 290 285 280 285 286 292 290 286 274 275 277 282 280 278 277 280 284 286
270 271 273 275 276 279 281 283 284 286 286 289 294 295 290 290 293 293 294 293 292 289 293 297 286 287 284 278 281 279 270 276 277 279 277 278 279 279 281 283 282 283 288 291
272 274 273 274 277 275 281 282 283 286 288 288 288 289 288 296 295 293 292 291 293 293 290 292 288 282 276 267 263 271 275 278 281 279 283 284 283 283 286 291 294 295 295 296
270 273 275 277 278 280 283 283 284 283 284 285 288 291 292 294 295 288 285 290 292 283 293 288 273 273 270 272 285 284 281 279 280 281 286 290 293 295 296 297 296 300 304 315
269 270 272 275 277 278 278 278 278 282 284 284 292 291 292 284 280 281 286 291 289 290 291 283 286 285 290 292 296 295 291 290 291 293 296 297 297 294 296 299 303 308 322 325
271 275 277 277 275 276 278 275 282 282 285 287 289 292 289 287 283 287 289 272 289 283 281 273 282 296 297 298 297 296 298 298 298 298 292 294 298 299 301 301 304 311 315 331
269 270 272 274 273 275 276 279 281 284 289 289 281 284 279 278 284 281 277 277 277 271 281 282 286 285 292 298 299 299 301 292 297 300 297 298 298 299 297 298 300 300 302 314
265 269 272 276 278 275 274 281 283 287 281 276 282 274 276 273 271 268 270 253 262 253 273 284 291 296 300 307 302 303 304 303 299 296 296 299 297 296 301 299 300 301 303 306
264 264 267 272 273 272 277 282 283 270 271 278 268 262 253 262 256 226 239 229 256 273 290 292 287 304 308 305 309 309 307 308 302 299 300 299 301 305 303 301 303 304 303 309
263 267 265 268 272 279 270 278 276 270 261 266 262 240 267 253 251 257 255 274 269 281 277 284 303 307 309 311 320 328 321 320 311 310 310 307 305 302 300 300 299 300 305 309
260 264 268 277 282 272 268 262 266 259 235 254 243 247 245 240 251 254 259 260 262 272 287 301 311 312 316 323 331 334 343 336 329 326 316 308 304 303 301 298 300 302 307 310
262 268 277 281 268 270 268 244 254 244 246 252 241 238 238 243 250 266 255 252 271 289 298 304 311 321 326 338 347 350 345 353 354 339 321 315 310 313 312 310 309 308 308 308
265 273 283 276 284 275 268 252 242 248 252 251 239 239 239 245 256 255 247 265 281 294 293 303 312 316 320 328 334 340 351 357 357 356 351 348 342 337 333 330 328 326 324 322